Weather History for KHIF - October, 2013

Change the Weather History Date:

Saturday, October 19, 2013

  Actual Average Record
Temperature  
Mean Temperature 46 °F -  
Max Temperature 58 °F 57 °F 75 °F (2003)
Min Temperature 34 °F 38 °F 33 °F (1996)
Degree Days  
Heating Degree Days 19    
Moisture  
Dew Point 26 °F    
Average Humidity 45    
Maximum Humidity 62    
Minimum Humidity 30    
Precipitation  
Precipitation 0.00 in - - ()
Sea Level Pressure  
Sea Level Pressure 30.17 in    
Wind  
Wind Speed 10 mph (SE)    
Max Wind Speed 15 mph    
Max Gust Speed -    
Visibility 10 miles    
Events      
Averages and records for this station are not official NWS values.
T = Trace of Precipitation, MM = Missing Value Source: NWS Daily Summary

Daily Weather History Graph

Daily Weather History Graph

Search for Another Location

Airport or City:

Trip Planner

Search our weather history database for the weather conditions in past years. The results will help you decide how hot, cold, wet, or windy it might be!

Date:

Astronomy

Oct. 19, 2013 Rise Set
Actual Time 7:44 AM MDT 6:40 PM MDT
Civil Twilight 7:16 AM MDT 7:08 PM MDT
Nautical Twilight 6:44 AM MDT 7:40 PM MDT
Astronomical Twilight 6:12 AM MDT 8:12 PM MDT
Moon 7:10 PM MDT (10/19) 8:26 AM MDT (10/19)
Length of Visible Light 11h 52m
Length of Day
10h 56m
Full, 99% of the Moon is Illuminated
Oct 19
Full
Oct 26
Last Quarter
Nov 3
New
Nov 9
First Quarter
Nov 17
Full

Hourly Weather History & Observations

Time (MDT) Temp. Windchill Dew Point Humidity Pressure Visibility Wind Dir Wind Speed Gust Speed Precip Events Conditions
12:58 AM 39.7 °F 33.7 °F 24.1 °F 54% 30.26 in 10.0 mi ESE 9.2 mph - N/A   Clear
1:58 AM 38.7 °F 30.9 °F 23.9 °F 55% 30.21 in 10.0 mi ESE 12.7 mph - N/A   Clear
2:58 AM 38.8 °F 31.2 °F 23.7 °F 55% 30.21 in 10.0 mi ESE 12.7 mph - N/A   Clear
3:58 AM 37.9 °F 30.5 °F 23.4 °F 56% 30.20 in 10.0 mi ESE 11.5 mph - N/A   Clear
4:58 AM 37.4 °F 29.3 °F 23.5 °F 57% 30.20 in 10.0 mi ESE 12.7 mph - N/A   Clear
5:58 AM 37.2 °F 28.3 °F 23.0 °F 56% 30.21 in 10.0 mi ESE 15.0 mph - N/A   Clear
6:58 AM 36.1 °F 27.3 °F 22.8 °F 58% 30.22 in 10.0 mi ESE 13.8 mph - N/A   Clear
7:58 AM 34.7 °F 25.5 °F 23.0 °F 62% 30.24 in 10.0 mi ESE 13.8 mph - N/A   Clear
8:58 AM 38.1 °F 29.8 °F 24.3 °F 57% 30.24 in 10.0 mi ESE 13.8 mph - N/A   Clear
9:58 AM 42.1 °F 35.7 °F 25.3 °F 52% 30.24 in 10.0 mi ESE 11.5 mph - N/A   Clear
10:58 AM 47.7 °F - 27.1 °F 45% 30.23 in 10.0 mi ESE 6.9 mph - N/A   Clear
11:58 AM 52.3 °F - 29.7 °F 42% 30.21 in 10.0 mi SSE 5.8 mph - N/A   Clear
12:58 PM 55.2 °F - 30.9 °F 40% 30.19 in 10.0 mi South 5.8 mph - N/A   Clear
1:58 PM 56.5 °F - 30.0 °F 36% 30.17 in 10.0 mi SW 6.9 mph - N/A   Clear
2:58 PM 57.6 °F - 27.7 °F 32% 30.15 in 10.0 mi Variable 5.8 mph - N/A   Clear
3:58 PM 58.5 °F - 26.8 °F 30% 30.13 in 10.0 mi West 6.9 mph - N/A   Clear
4:58 PM 58.1 °F - 26.2 °F 30% 30.12 in 10.0 mi SW 4.6 mph - N/A   Clear
5:58 PM 57.2 °F - 27.5 °F 32% 30.11 in 10.0 mi SSW 4.6 mph - N/A   Clear
6:58 PM 54.1 °F - 26.8 °F 35% 30.12 in 10.0 mi Calm Calm - N/A   Clear
7:58 PM 50.9 °F - 27.5 °F 40% 30.11 in 10.0 mi ESE 4.6 mph - 0.00 in   Clear
8:58 PM 50.0 °F - 24.1 °F 36% 30.09 in 10.0 mi ESE 5.8 mph - N/A   Clear
9:58 PM 47.7 °F - 23.4 °F 38% 30.09 in 10.0 mi ESE 9.2 mph - N/A   Clear
10:58 PM 45.1 °F 42.8 °F 25.0 °F 45% 30.07 in 10.0 mi SSE 4.6 mph - N/A   Clear
11:58 PM 46.0 °F 42.5 °F 23.4 °F 41% 30.04 in 10.0 mi ESE 6.9 mph - N/A   Clear